STARLINK-2040, 47656

Orbit data source: Space-Track

STARLINK-2040, 47656 is a payload satellite owned by SpaceX/Seattle (US) in LEO that was launched on Tue, 16 Feb 2021 UTC via an FALCON 9 launch vehicle from the Air Force Eastern Test Range (AFETR). Payload-class satellites include a variety of spacecraft equipped with specific instruments for various scientific and technological missions. These include communications satellites like Starlink; space stations such as the ISS; scientific satellites like the Hubble; Earth observation satellites from companies like Planet Labs, Umbra, and HawkEye 360; GPS; miniature CubeSats for education and research; and military/defense satellites.

Loading next visibility...
Identifier
47656, 2021-012AN
Orbit
LEO
Country
Flag of USUS
Related business
Manufacturer
SpaceX/Seattle
Mission
Operational Commercial Communications
Bus & Motor
STARLINK, Unknown motor
Mass
260 kg wet, ~248 kg dry
Launch date (UTC)
2021-02-16 (5 years ago)
Launch vehicle
FALCON 9
Launch site
Air Force Eastern Test Range (AFETR)
Object type
Payload
Rocket body
Debris
Shape & HBR
Box + 1 Pan, 10.1 m
Radar Cross Section
13.562 m², Large (>1 m²)

Expand to show TLE details & history
Last TLE update: 20 hours ago

TLE from 20 hours ago
0 STARLINK-2040
1 47656U 21012AN  25348.70675079  .00005684  00000-0  40025-3 0  9994
2 47656  53.0534  73.1201 0001361  84.1437 275.9707 15.06390415267457
Epoch: 2025-12-14T16:57Z
TLE epoch observation values (Epoch: 2025-12-14T16:57:43.268Z)
Latitude
-0.00002°
Longitude
95.07399°
Altitude
548.022 km
Speed
7.589 km/s
True Right ascension
04h 52m 28s
True Declination
0° 00' 00"
Sunlit
Object was in full shadow at epoch
Visualization orbit readout
Latitude
Unknown
Longitude
Unknown
Altitude
Unknown
Speed
Unknown
Apparent Right ascension
Unknown
Apparent Declination
Unknown
Sunlit
N/A
Visualization observer readout
Local Sidereal Time
12:03:01
Azimuth
Unknown
Elevation
Unknown
Doppler factor
Unknown
Orbital elements
Apogee altitude
548.454 km
Perigee altitude
546.569 km
Semi-major axis
6,925.649 km
Eccentricity
0.00014
Inclination
53.0534°
RAAN
73.1201°
Arg. of periapsis
84.1437°
True anomaly
275.95519°
Mean anomaly
275.9707°
Eccentric anomaly
275.96294°
Mean motion
3.76576 °/min
Orbital period
95.6 mins
BSTAR
0.00040025
Loading maneuver chart data...
Computing Atmospheric mass density...
Loading historical data...
Loading historical data...
Loading historical data...
Loading historical data...
Loading historical data...
Loading historical data...
Loading historical data...

Documentation

Showing up to 5 results
|